Details From YBRK - Rockhampton
To YBMK - Mackay
Flight Number -
Tags None
Created
Modified
Stats Distance 151 nm / 279 km
Max Altitude 17,300 ft / 5,273 m
Waypoints 3
Social Downloads 5
Likes 0
Share

Download

Looking for another format? Having issues loading an existing format? Contact us
Advertisement - Login to hide

Notes

Basic altitude profile: - Ascent Rate: 2500ft/min - Ascent Speed: 250kts - Cruise Altitude: 35000ft - Cruise Speed: 420kts - Descent Rate: 1500ft/min - Descent Speed: 250kts Options: - Use NATs: yes - Use PACOTS: yes - Use low airways: yes - Use high airways: yes

Route

YBRK CARON YBMK

ID Type Via Altitude (ft/m) Position (lat/lon) Dist (leg/tot) Name
O YBRK APT - 0 / 0 -23.37880 / 150.47300 - / 0 nm Rockhampton
CARON FIX - 17,300 / 5,273 -22.35830 / 149.86500 69 / 69 nm
O YBMK APT - 0 / 0 -21.17160 / 149.18100 80 / 150 nm Mackay

Altitude Profile

Advertisement - Login to hide

YBRK

Details ICAO YBRK (ROK)
Name Rockhampton
Region Australia
Timezone Australia/Brisbane (UTC+10.0)
Stats Elevation 34 ft / 10 m (AMSL)
Location -23.378800° 150.473000°
Runways 2
Magnetic Variation 9.184° E

METAR

YBRK 281530Z AUTO 15005KT 9999 // NCD 18/13 Q1020 RF00.0/000.0

Decode

TAF

TAF YBRK 281042Z 2812/2912 12005KT 9999 SCT020 FM282300 10012KT 9999 FEW025 FM290900 12005KT 9999 SCT020

Decode

Departure Runways

ID Width Length Bearing (true/mag) Surface Threshold Overrun Markings Lighting
04 102 ft / 31 m 5,395 ft / 1,644 m 52.34° / 43.16° ASPHALT 0 ft / 0 m 20 ft / 6 m APP EDGE THRESHOLD
15 148 ft / 45 m 8,649 ft / 2,636 m 157.80° / 148.62° ASPHALT 0 ft / 0 m 0 ft / 0 m APP EDGE THRESHOLD
22 102 ft / 31 m 5,395 ft / 1,644 m 232.34° / 223.15° ASPHALT 0 ft / 0 m 0 ft / 0 m APP EDGE THRESHOLD
33 148 ft / 45 m 8,649 ft / 2,636 m 337.80° / 328.61° ASPHALT 0 ft / 0 m 0 ft / 0 m APP EDGE THRESHOLD

YBMK

Details ICAO YBMK (MKY)
Name Mackay
Region Australia
Timezone Australia/Brisbane (UTC+10.0)
Stats Elevation 18 ft / 5 m (AMSL)
Location -21.171600° 149.181000°
Runways 2
Magnetic Variation 8.339° E

METAR

YBMK 281500Z AUTO 10011KT 9999 // SCT034 22/15 Q1019

Decode

TAF

Not found

Destination Runways

ID Width Length Bearing (true/mag) Surface Threshold Overrun Markings Lighting
05 98 ft / 30 m 4,411 ft / 1,344 m 57.80° / 49.46° ASPHALT 194 ft / 59 m 0 ft / 0 m VISUAL EDGE THRESHOLD
14 148 ft / 45 m 6,516 ft / 1,986 m 147.90° / 139.56° ASPHALT 0 ft / 0 m 0 ft / 0 m APP EDGE THRESHOLD
23 98 ft / 30 m 4,411 ft / 1,344 m 237.80° / 229.46° ASPHALT 0 ft / 0 m 0 ft / 0 m VISUAL EDGE THRESHOLD
32 148 ft / 45 m 6,516 ft / 1,986 m 327.90° / 319.56° ASPHALT 0 ft / 0 m 0 ft / 0 m APP EDGE THRESHOLD

Popular Alternatives